Showing default

FIREFLY-2, 62704

Orbit data source: Space-Track

FIREFLY-2, 62704 is a payload satellite owned by Pixxel (IN) in SSO that was launched on Tue, 14 Jan 2025 UTC via an FALCON 9 launch vehicle from the Air Force Western Test Range (AFWTR). Payload-class satellites include a variety of spacecraft equipped with specific instruments for various scientific and technological missions. These include communications satellites like Starlink; space stations such as the ISS; scientific satellites like the Hubble; Earth observation satellites from companies like Planet Labs, Umbra, and HawkEye 360; GPS; miniature CubeSats for education and research; and military/defense satellites.

Loading next visibility...
Identifier
62704, 2025-009CZ
Orbit
SSO
Country
Flag of ININ / IND
Related business
Manufacturer
Pixxel
Mission
Operational Commercial Imaging
Bus & Motor
FIREFLY, Unknown motor
Mass
60 kg wet, 60 kg dry
Launch date (UTC)
2025-01-14 (1 year ago)
Launch vehicle
FALCON 9
Launch site
Air Force Western Test Range (AFWTR)
Object type
Payload
Rocket body
Debris
Shape & HBR
Box + 2 Pan, 0.9 m
Radar Cross Section
0.338 m², Medium (>0.1 m² and < 1m²)

Expand to show TLE details & history
Last TLE update: 13 hours ago

TLE from 13 hours ago
0 FIREFLY-2
1 62704U 25009CZ  26171.48966579  .00000707  00000-0  73914-4 0  9998
2 62704  97.7027 249.3371 0008065  75.9917 284.2199 14.92678892 77813
Epoch: 2026-06-20T11:45Z
TLE epoch observation values (Epoch: 2026-06-20T11:45:07.124Z)
Latitude
0.00003°
Longitude
164.35386°
Altitude
591.255 km
Speed
7.565 km/s
True Right ascension
16h 37m 20s
True Declination
0° 00' 00"
Sunlit
Object was in full shadow at epoch
Visualization orbit readout
Latitude
Unknown
Longitude
Unknown
Altitude
Unknown
Speed
Unknown
Apparent Right ascension
Unknown
Apparent Declination
Unknown
Sunlit
N/A
Visualization observer readout
Local Sidereal Time
11:43:26
Azimuth
Unknown
Elevation
Unknown
Doppler factor
Unknown
Orbital elements
Apogee altitude
592.219 km
Perigee altitude
580.985 km
Semi-major axis
6,964.739 km
Eccentricity
0.00081
Inclination
97.7027°
RAAN
249.3371°
Arg. of periapsis
75.9917°
True anomaly
284.13029°
Mean anomaly
284.2199°
Eccentric anomaly
284.1751°
Mean motion
3.7341 °/min
Orbital period
96.41 mins
BSTAR
0.000073914
Loading maneuver chart data...
Computing Atmospheric mass density...
Loading historical data...
Loading historical data...
Loading historical data...
Loading historical data...
Loading historical data...
Loading historical data...
Loading historical data...

Documentation

Showing up to 5 results
|